RH
48 77 94 97 95 81 45 54 32 26 26 24 19 44 60 67 44 40 43 39 33 52 44 24 19 19 22 40 48 50 53 58 46 56 100 100 80 49 22 19 23 21 19
92 74 75 72 90 86 58 49 55 25 24 27 34 55 53 57 60 40 47 50 46 62 50 28 20 23 20 37 48 45 42 67 56 100 100 97 79 37 20 23 24 22 20
100 100 100 95 100 77 68 55 57 34 30 36 35 47 51 57 69 56 39 44 56 58 75 32 19 22 26 34 47 39 33 59 90 100 100 83 62 24 21 25 26 22 22
100 100 80 83 91 99 63 62 59 54 32 31 39 39 31 39 68 86 71 52 69 74 69 38 20 19 27 39 51 48 46 84 100 100 95 60 37 20 24 26 25 23 23
100 100 100 100 94 82 64 62 56 58 37 39 40 44 44 29 27 50 67 77 86 92 75 41 24 18 27 37 56 53 68 100 100 85 68 35 23 22 26 27 26 25 26
100 100 100 100 100 92 87 58 80 78 72 53 42 62 72 47 47 57 73 98 100 100 77 41 27 20 30 38 59 64 70 70 76 49 45 22 22 26 28 29 26 26 26
100 99 90 100 99 80 97 97 71 98 90 90 76 79 77 70 75 79 95 100 100 100 87 48 30 22 31 34 57 55 50 58 70 49 24 22 22 28 29 30 28 28 27
100 95 95 100 100 100 100 98 96 80 83 88 100 100 92 87 99 90 100 91 100 98 92 46 28 23 35 31 57 59 41 56 37 23 24 25 23 28 32 31 32 30 32
84 72 70 89 98 96 100 100 100 99 100 100 100 100 100 100 100 100 100 100 100 97 90 51 26 23 26 32 53 70 32 20 23 26 24 26 24 27 36 39 33 31 34
50 53 53 76 84 79 75 100 73 85 100 99 100 100 100 100 100 100 100 100 100 100 88 60 28 23 27 29 55 71 33 20 24 28 26 26 25 27 36 42 36 33 36
30 39 42 51 66 72 63 79 100 94 80 72 68 94 99 96 100 100 100 100 100 100 87 56 29 21 28 28 46 72 40 24 26 28 29 27 26 27 33 40 39 35 37
60 52 44 41 47 55 57 62 85 100 100 97 80 75 69 49 90 100 100 97 100 98 89 50 29 24 27 31 35 57 53 25 27 27 30 28 27 27 32 41 45 38 40
35 39 53 46 44 44 47 51 57 99 100 98 91 88 74 68 59 88 100 100 100 100 85 53 33 34 24 31 35 41 65 26 28 29 29 29 27 27 30 36 46 41 41
10 11 20 42 36 37 29 41 40 63 91 100 83 82 69 65 65 55 100 96 100 100 85 59 32 52 28 30 43 43 74 34 27 30 30 30 29 28 29 35 49 49 48
12 9 10 11 16 18 15 26 22 39 75 93 100 99 79 67 86 100 99 92 92 100 96 57 38 44 35 25 50 46 79 57 27 29 31 30 30 30 30 34 50 56 57
14 11 9 11 10 8 9 9 18 31 100 100 94 100 99 100 86 99 100 100 100 100 100 64 38 40 44 31 42 52 74 90 27 29 34 33 32 30 30 34 41 58 62
13 12 9 10 12 11 9 9 24 25 57 100 100 100 100 100 100 100 100 100 100 100 92 96 44 40 47 44 37 56 64 100 40 29 34 34 33 32 31 34 39 48 56
13 13 9 10 12 11 12 10 15 23 86 100 100 100 100 100 96 100 100 100 100 100 100 100 53 52 51 52 35 53 46 100 73 31 31 36 34 34 33 34 38 40 52
10 12 11 10 12 11 11 12 11 17 90 100 97 100 100 100 96 100 100 100 100 100 100 100 65 57 56 60 42 50 42 92 99 36 32 35 36 35 35 36 39 40 48
9 10 9 11 11 13 11 12 12 27 79 100 100 100 100 100 100 98 100 100 100 100 100 100 74 69 57 67 48 48 43 73 100 62 35 33 38 38 37 37 41 42 48
7 9 8 9 12 13 12 13 13 26 68 100 100 100 100 100 86 84 100 100 100 100 100 100 93 76 68 80 53 61 56 62 100 97 45 36 38 40 39 39 42 45 47
7 8 8 9 10 12 12 13 13 17 74 100 100 99 78 80 94 100 100 100 100 100 100 100 100 77 78 92 53 54 57 58 74 100 70 43 38 42 42 41 42 46 48
5 7 7 8 10 11 12 12 13 17 100 100 100 100 100 100 82 87 100 92 100 100 100 100 100 97 87 93 59 46 65 82 75 97 99 63 41 44 44 43 46 50 50
4 5 6 8 9 11 12 12 14 17 100 100 100 97 100 100 63 77 100 98 100 100 100 100 100 100 96 90 83 49 64 72 69 70 100 92 61 47 47 46 46 51 53
3 4 5 7 8 10 12 11 14 22 89 100 100 84 94 99 81 59 100 100 100 100 100 100 100 100 91 98 94 61 58 73 69 85 85 100 88 68 64 58 52 50 52
2 3 3 7 8 10 12 12 14 22 79 100 100 96 100 100 94 60 81 100 100 100 100 100 100 97 76 79 91 73 56 61 72 79 92 94 100 90 90 74 60 52 51
Wind_Speed
62 57 56 57 58 59 53 47 43 41 37 37 43 36 41 41 41 42 44 42 41 44 31 31 26 19 21 23 24 27 24 23 22 21 25 26 31 31 24 20 18 23 28
58 60 63 61 60 55 53 46 45 48 43 42 39 38 43 43 43 40 42 45 47 41 32 28 27 24 20 22 23 26 26 23 20 20 20 26 30 30 20 16 18 22 30
61 61 59 63 54 57 59 58 52 51 49 45 43 44 42 46 42 41 42 43 45 45 36 29 25 24 21 21 23 23 23 19 17 19 23 28 30 24 17 15 16 21 30
69 70 72 70 69 64 67 65 58 59 59 53 47 48 51 48 50 49 46 44 45 42 26 29 24 24 24 21 22 20 20 15 16 18 25 29 27 17 14 14 15 20 27
76 76 76 73 71 70 68 65 61 59 59 52 48 49 53 55 58 51 54 52 44 42 30 28 27 25 24 22 20 19 19 18 20 25 25 25 17 14 12 13 16 20 26
84 80 76 76 85 74 68 68 61 57 57 56 51 53 55 52 55 57 57 45 50 43 30 25 28 27 24 22 21 22 20 21 20 22 24 17 14 12 11 12 15 20 25
95 88 86 86 81 82 78 73 70 70 67 65 64 62 58 59 59 57 56 53 52 40 34 26 29 30 24 24 22 23 23 21 23 22 16 15 12 10 10 12 13 19 22
102 98 93 86 80 74 72 76 74 71 70 65 67 65 60 60 61 54 52 54 48 37 31 26 30 30 24 24 23 23 25 25 22 14 13 13 12 10 10 12 14 16 21
110 108 100 93 89 86 71 67 68 70 68 70 60 62 60 58 55 54 53 43 39 38 29 25 30 32 28 24 24 23 22 20 16 13 12 13 12 10 9 11 14 15 20
112 111 107 95 94 87 88 75 66 59 55 49 47 48 50 51 53 51 46 41 39 35 31 28 32 34 30 24 25 23 22 18 15 12 12 13 11 10 10 11 13 15 19
123 115 111 105 97 93 90 86 81 81 50 51 45 41 42 43 45 47 45 39 38 35 34 32 33 35 33 27 26 25 22 18 15 14 13 13 11 10 10 11 13 14 17
135 128 124 117 110 103 98 89 82 76 73 56 55 62 54 47 40 46 41 39 36 36 36 35 33 35 35 31 28 28 24 21 18 16 15 13 12 10 10 11 12 14 17
137 136 131 122 117 114 107 98 83 71 75 80 82 69 62 53 42 41 44 39 40 38 37 38 37 35 37 34 31 30 27 23 20 19 18 15 13 12 11 10 12 13 16
122 122 123 126 125 119 113 109 95 83 61 59 82 73 70 62 56 51 48 43 41 43 39 39 38 36 39 36 33 32 29 26 24 22 20 17 15 13 12 11 12 12 13
119 117 113 111 114 113 110 108 95 90 80 81 64 66 62 63 54 50 50 46 46 46 41 41 42 36 38 38 35 34 32 28 27 24 22 18 16 14 13 13 11 11 12
115 115 110 109 105 102 97 97 88 86 69 79 88 72 59 61 57 58 57 52 52 49 46 44 43 41 38 39 36 36 35 30 28 26 23 21 18 16 15 14 12 13 13
112 113 109 104 103 96 90 87 82 83 76 75 73 65 66 64 64 64 62 57 52 47 48 47 45 42 40 39 39 38 37 33 30 29 25 23 21 19 17 16 14 14 14
109 111 107 101 100 94 88 84 81 83 79 84 82 73 63 64 61 67 65 58 57 51 49 49 48 43 42 40 40 40 40 35 32 31 28 25 24 21 19 18 16 15 15
108 108 106 100 97 93 87 84 81 84 91 86 83 77 72 67 61 64 64 58 56 55 51 51 49 45 44 38 39 41 41 37 34 32 30 27 25 23 21 20 19 17 15
102 107 104 100 95 94 86 83 83 90 100 97 79 72 76 69 63 64 66 64 54 54 54 52 50 45 47 41 40 40 41 41 36 34 33 29 27 26 24 22 21 20 18
99 103 102 98 96 94 88 84 85 97 105 88 84 72 75 64 61 63 69 62 59 55 55 53 52 47 46 40 40 40 40 45 38 37 36 33 30 29 27 25 24 22 21
104 102 101 98 96 93 91 86 85 102 106 91 84 73 81 76 68 56 58 60 62 55 50 53 54 49 49 41 40 43 39 44 44 40 39 36 33 31 30 28 27 25 23
104 105 103 101 98 96 93 88 89 103 113 106 79 63 71 75 80 61 55 57 64 57 55 54 55 52 49 41 40 44 41 46 49 43 41 39 37 34 33 31 30 27 26
96 102 103 102 102 99 96 90 93 107 117 113 87 85 66 75 81 73 60 54 56 63 58 55 56 52 50 44 41 42 45 45 47 50 43 42 40 38 36 34 33 30 28
87 96 101 100 102 100 100 93 95 114 119 118 99 91 72 73 79 80 67 57 55 57 59 57 55 52 53 48 44 42 45 45 46 48 46 44 42 41 39 37 36 35 33
79 89 94 99 101 100 102 95 97 118 122 115 97 90 82 71 76 79 73 60 58 58 58 58 57 54 52 51 47 42 42 47 48 48 49 43 44 43 43 42 39 37 35
Wind_Direction
264 264 265 266 269 274 277 280 280 292 299 300 306 304 311 315 316 323 322 328 328 333 337 327 310 294 281 283 287 282 283 288 295 304 303 312 318 334 336 344 2 1 358
266 264 265 267 265 271 277 276 282 290 297 300 299 302 305 306 310 314 316 322 327 330 335 325 303 294 284 277 282 282 283 286 296 298 296 314 318 330 335 352 3 -0 2
261 264 264 266 264 271 274 275 278 287 288 293 297 294 299 301 304 310 308 315 321 326 325 326 309 288 279 274 276 286 285 285 294 285 302 310 322 325 337 350 3 1 9
258 260 265 266 266 266 271 274 276 280 284 284 285 289 294 293 301 304 305 310 315 318 318 321 307 290 277 269 275 284 280 285 279 287 307 310 316 324 341 354 0 2 8
251 255 260 260 265 265 270 270 274 275 278 279 282 285 290 293 295 300 304 302 305 313 311 304 303 288 270 266 271 273 278 271 275 286 302 309 314 323 339 351 356 -0 6
250 251 257 261 263 264 264 266 270 272 275 279 279 285 287 289 291 298 302 297 300 304 307 295 294 285 265 258 260 265 271 273 280 294 303 305 308 320 338 347 355 359 8
260 257 247 258 264 259 260 263 263 270 272 276 277 280 283 284 289 290 296 301 299 292 297 292 290 278 266 254 251 264 271 274 279 289 291 299 300 309 329 339 346 356 4
261 261 255 253 256 262 269 266 265 263 268 271 275 278 278 282 286 288 289 293 293 293 286 283 278 273 262 255 245 255 265 269 275 271 286 293 295 300 315 333 338 354 2
258 261 257 255 254 252 254 260 268 270 273 276 278 279 273 279 282 281 284 283 288 284 271 276 274 267 263 253 246 254 263 258 256 263 281 288 292 295 298 330 337 348 359
256 257 258 254 252 254 252 252 251 262 267 277 279 276 278 276 276 279 276 279 269 265 269 271 265 260 258 252 245 249 259 251 248 258 272 284 289 291 284 313 326 343 356
251 252 254 256 251 250 250 254 258 256 251 258 268 274 278 276 275 270 271 272 259 259 264 263 261 259 256 251 242 243 252 247 245 251 259 275 284 288 285 299 316 336 351
253 252 251 252 253 250 248 249 251 256 255 248 256 266 269 271 266 267 263 269 251 257 258 256 261 261 252 250 241 240 246 244 242 246 254 264 277 280 280 295 310 330 347
253 253 250 251 251 250 251 247 249 245 247 259 258 258 263 264 260 262 263 255 247 250 252 252 257 257 251 249 245 237 242 243 240 245 250 255 265 274 275 286 302 318 338
248 249 250 249 251 249 251 250 247 245 247 239 261 247 254 255 255 256 255 249 247 245 249 247 253 255 251 248 247 237 237 241 238 242 246 250 257 264 272 272 293 309 330
248 246 246 246 245 246 246 246 244 239 228 244 237 245 245 248 243 246 247 242 244 243 243 242 246 253 250 248 245 237 234 238 239 241 247 247 252 259 264 262 276 301 321
246 247 244 244 242 240 240 240 233 233 212 217 245 241 239 232 236 241 248 244 243 240 242 240 241 248 250 248 245 236 232 235 238 240 243 246 248 254 259 262 268 285 303
243 244 244 241 241 238 235 232 223 225 216 213 228 230 236 230 231 238 247 242 245 237 241 238 240 243 249 247 244 235 231 234 235 239 241 243 245 250 254 260 257 275 293
242 242 242 239 237 235 231 227 218 219 203 212 220 226 225 232 221 233 242 243 243 240 241 236 237 242 245 246 243 238 229 232 231 237 241 243 245 248 252 258 260 264 282
242 239 239 236 233 233 227 223 216 210 203 206 215 221 221 229 223 226 236 239 241 239 240 235 233 239 241 245 242 240 231 229 233 233 240 242 243 246 249 253 262 258 269
237 237 236 233 230 229 224 219 213 205 200 208 211 217 222 224 227 224 229 237 237 240 240 234 231 237 241 244 239 240 234 229 236 230 236 240 241 242 246 251 257 258 263
235 232 232 229 226 224 221 214 208 200 198 202 210 211 215 220 223 224 229 232 230 237 234 231 230 235 238 244 236 237 234 231 233 231 233 236 238 239 242 246 252 256 261
233 229 227 225 222 220 219 211 205 196 198 198 205 208 216 221 217 220 227 227 229 232 233 232 230 232 235 240 234 235 235 234 230 234 229 233 235 236 239 243 247 253 257
226 226 223 221 218 217 216 210 202 195 192 195 196 185 207 219 217 221 224 218 224 229 230 232 228 230 231 235 235 232 233 231 232 233 230 232 235 235 237 240 243 248 253
221 219 220 216 215 213 213 208 199 195 190 193 195 194 203 221 219 218 219 218 221 228 229 227 226 231 231 231 237 234 232 234 234 236 237 232 235 237 237 238 242 244 250
217 215 215 211 211 209 209 205 196 194 190 191 198 202 195 217 212 214 221 220 219 224 224 223 223 229 227 231 237 237 231 234 234 234 236 235 232 236 238 238 241 245 249
213 211 211 207 207 205 206 202 195 192 191 192 195 195 200 205 215 215 219 218 223 224 222 222 222 225 226 229 234 239 236 233 234 234 234 237 238 237 239 240 240 244 248